Time,TemperatureF,DewpointF,PressureIn,WindDirection,WindDirectionDegrees,WindSpeedMPH,WindSpeedGustMPH,Humidity,HourlyPrecipIn,Conditions,Clouds,dailyrainin,SoftwareType,DateUTC
2013-09-24 00:00:00,74.5,69.0,29.94,NE,54,5.0,5.0,83,0.00,,,0.00,Wunderground v.1.15,2013-09-24 10:00:00,
2013-09-24 00:05:00,74.1,68.6,29.93,East,90,4.0,5.0,83,0.00,,,0.00,Wunderground v.1.15,2013-09-24 10:05:00,
2013-09-24 00:15:00,73.9,68.1,29.93,East,86,2.0,3.0,82,0.00,,,0.00,Wunderground v.1.15,2013-09-24 10:15:00,
2013-09-24 00:25:00,74.1,67.5,29.92,East,100,2.0,2.0,80,0.00,,,0.00,Wunderground v.1.15,2013-09-24 10:25:00,
2013-09-24 00:35:00,74.4,67.5,29.92,East,97,1.0,2.0,79,0.00,,,0.00,Wunderground v.1.15,2013-09-24 10:35:00,
2013-09-24 00:45:00,74.4,67.8,29.92,East,86,2.0,4.0,80,0.00,,,0.00,Wunderground v.1.15,2013-09-24 10:45:00,
2013-09-24 00:55:00,74.4,68.2,29.92,East,94,2.0,2.0,81,0.00,,,0.00,Wunderground v.1.15,2013-09-24 10:55:00,
2013-09-24 01:05:00,74.4,68.5,29.92,East,86,1.0,3.0,82,0.00,,,0.00,Wunderground v.1.15,2013-09-24 11:05:00,
2013-09-24 01:15:00,74.4,68.5,29.91,East,88,2.0,3.0,82,0.00,,,0.00,Wunderground v.1.15,2013-09-24 11:15:00,
2013-09-24 01:25:00,74.4,68.5,29.91,East,91,2.0,5.0,82,0.00,,,0.00,Wunderground v.1.15,2013-09-24 11:25:00,
2013-09-24 01:35:00,74.3,68.8,29.91,ENE,78,2.0,2.0,83,0.00,,,0.00,Wunderground v.1.15,2013-09-24 11:35:00,
2013-09-24 01:40:00,74.2,68.7,29.91,East,89,2.0,2.0,83,0.00,,,0.00,Wunderground v.1.15,2013-09-24 11:40:00,
2013-09-24 01:50:00,74.1,68.6,29.91,East,79,2.0,3.0,83,0.00,,,0.00,Wunderground v.1.15,2013-09-24 11:50:00,
2013-09-24 02:00:00,73.9,68.8,29.91,ENE,78,1.0,1.0,84,0.00,,,0.00,Wunderground v.1.15,2013-09-24 12:00:00,
2013-09-24 02:05:00,73.9,68.8,29.91,East,82,2.0,3.0,84,0.00,,,0.00,Wunderground v.1.15,2013-09-24 12:05:00,
2013-09-24 02:15:00,74.0,68.9,29.91,ENE,71,1.0,2.0,84,0.00,,,0.00,Wunderground v.1.15,2013-09-24 12:15:00,
2013-09-24 02:25:00,73.7,68.6,29.91,ENE,71,1.0,5.0,84,0.00,,,0.00,Wunderground v.1.15,2013-09-24 12:25:00,
2013-09-24 02:35:00,73.7,68.6,29.91,ENE,72,0.0,1.0,84,0.00,,,0.00,Wunderground v.1.15,2013-09-24 12:35:00,
2013-09-24 02:45:00,73.7,68.6,29.90,ENE,72,0.0,1.0,84,0.00,,,0.00,Wunderground v.1.15,2013-09-24 12:45:00,
2013-09-24 02:55:00,73.9,68.4,29.90,ENE,72,0.0,1.0,83,0.00,,,0.00,Wunderground v.1.15,2013-09-24 12:55:00,
2013-09-24 03:05:00,74.2,69.1,29.91,ENE,74,1.0,4.0,84,0.00,,,0.00,Wunderground v.1.15,2013-09-24 13:05:00,
2013-09-24 03:15:00,73.7,69.2,29.91,ENE,74,2.0,3.0,86,0.08,,,0.02,Wunderground v.1.15,2013-09-24 13:15:00,
2013-09-24 03:25:00,73.2,69.4,29.90,ENE,74,1.0,2.0,88,0.00,,,0.02,Wunderground v.1.15,2013-09-24 13:25:00,
2013-09-24 03:35:00,73.0,69.6,29.90,ENE,74,0.0,1.0,89,0.00,,,0.03,Wunderground v.1.15,2013-09-24 13:35:00,
2013-09-24 03:45:00,72.9,69.8,29.90,ENE,74,0.0,1.0,90,0.00,,,0.03,Wunderground v.1.15,2013-09-24 13:45:00,
2013-09-24 03:55:00,73.0,69.9,29.90,ENE,74,0.0,2.0,90,0.00,,,0.03,Wunderground v.1.15,2013-09-24 13:55:00,
2013-09-24 04:05:00,73.1,70.0,29.90,ENE,74,1.0,3.0,90,0.00,,,0.03,Wunderground v.1.15,2013-09-24 14:05:00,
2013-09-24 04:15:00,72.8,69.4,29.90,ENE,74,1.0,1.0,89,0.00,,,0.03,Wunderground v.1.15,2013-09-24 14:15:00,
2013-09-24 04:20:00,72.8,69.4,29.90,ENE,74,1.0,1.0,89,0.00,,,0.03,Wunderground v.1.15,2013-09-24 14:20:00,
2013-09-24 04:30:00,72.6,69.2,29.90,ENE,74,0.0,3.0,89,0.00,,,0.03,Wunderground v.1.15,2013-09-24 14:30:00,
2013-09-24 04:35:00,72.5,68.7,29.90,ENE,74,0.0,3.0,88,0.00,,,0.03,Wunderground v.1.15,2013-09-24 14:35:00,
2013-09-24 04:45:00,72.7,68.9,29.90,ENE,74,1.0,6.0,88,0.00,,,0.03,Wunderground v.1.15,2013-09-24 14:45:00,
2013-09-24 04:50:00,73.0,68.9,29.90,ENE,78,1.0,2.0,87,0.00,,,0.03,Wunderground v.1.15,2013-09-24 14:50:00,
2013-09-24 05:00:00,73.1,69.0,29.90,ENE,78,1.0,1.0,87,0.00,,,0.03,Wunderground v.1.15,2013-09-24 15:00:00,
2013-09-24 05:05:00,73.0,68.9,29.91,East,79,0.0,1.0,87,0.00,,,0.03,Wunderground v.1.15,2013-09-24 15:05:00,
2013-09-24 05:15:00,73.1,69.0,29.91,East,79,0.0,2.0,87,0.00,,,0.03,Wunderground v.1.15,2013-09-24 15:15:00,
2013-09-24 05:25:00,73.3,69.2,29.91,East,81,1.0,2.0,87,0.00,,,0.03,Wunderground v.1.15,2013-09-24 15:25:00,
2013-09-24 05:35:00,73.7,69.2,29.91,ENE,64,2.0,3.0,86,0.00,,,0.03,Wunderground v.1.15,2013-09-24 15:35:00,
2013-09-24 05:45:00,73.9,70.1,29.91,ENE,72,4.0,4.0,88,0.45,,,0.13,Wunderground v.1.15,2013-09-24 15:45:00,
2013-09-24 05:55:00,72.6,69.5,29.91,East,93,5.0,5.0,90,0.06,,,0.14,Wunderground v.1.15,2013-09-24 15:55:00,
2013-09-24 06:05:00,71.5,68.4,29.92,East,99,5.0,5.0,90,0.00,,,0.14,Wunderground v.1.15,2013-09-24 16:05:00,
2013-09-24 06:15:00,71.6,68.8,29.92,ESE,108,4.0,5.0,91,0.00,,,0.14,Wunderground v.1.15,2013-09-24 16:15:00,
2013-09-24 06:20:00,71.6,68.8,29.92,ESE,108,2.0,2.0,91,0.00,,,0.14,Wunderground v.1.15,2013-09-24 16:20:00,
2013-09-24 06:25:00,71.5,68.7,29.92,East,97,2.0,4.0,91,0.00,,,0.14,Wunderground v.1.15,2013-09-24 16:25:00,
2013-09-24 06:35:00,71.8,69.0,29.92,East,99,2.0,2.0,91,0.00,,,0.14,Wunderground v.1.15,2013-09-24 16:35:00,
2013-09-24 06:45:00,72.0,69.2,29.93,East,99,1.0,2.0,91,0.00,,,0.14,Wunderground v.1.15,2013-09-24 16:45:00,
2013-09-24 06:50:00,72.2,69.4,29.93,East,99,0.0,0.0,91,0.00,,,0.14,Wunderground v.1.15,2013-09-24 16:50:00,
2013-09-24 07:00:00,72.4,69.6,29.93,East,99,0.0,2.0,91,0.00,,,0.14,Wunderground v.1.15,2013-09-24 17:00:00,
2013-09-24 07:05:00,72.6,69.8,29.93,East,99,0.0,2.0,91,0.00,,,0.14,Wunderground v.1.15,2013-09-24 17:05:00,
2013-09-24 07:15:00,73.3,70.5,29.93,East,99,1.0,1.0,91,0.00,,,0.14,Wunderground v.1.15,2013-09-24 17:15:00,
2013-09-24 07:25:00,73.7,70.3,29.93,East,98,2.0,2.0,89,0.00,,,0.14,Wunderground v.1.15,2013-09-24 17:25:00,
2013-09-24 07:35:00,73.7,69.9,29.94,East,98,1.0,3.0,88,0.00,,,0.14,Wunderground v.1.15,2013-09-24 17:35:00,
2013-09-24 07:45:00,73.9,70.5,29.94,East,98,0.0,1.0,89,0.00,,,0.14,Wunderground v.1.15,2013-09-24 17:45:00,
2013-09-24 07:50:00,74.0,70.2,29.94,East,98,0.0,0.0,88,0.00,,,0.14,Wunderground v.1.15,2013-09-24 17:50:00,
2013-09-24 08:00:00,74.1,70.3,29.94,East,98,1.0,2.0,88,0.00,,,0.14,Wunderground v.1.15,2013-09-24 18:00:00,
2013-09-24 08:05:00,73.9,70.1,29.95,East,98,2.0,2.0,88,0.38,,,0.17,Wunderground v.1.15,2013-09-24 18:05:00,
2013-09-24 08:15:00,73.2,70.1,29.95,East,88,2.0,3.0,90,0.55,,,0.22,Wunderground v.1.15,2013-09-24 18:15:00,
2013-09-24 08:25:00,73.0,70.2,29.96,East,88,1.0,2.0,91,0.12,,,0.26,Wunderground v.1.15,2013-09-24 18:25:00,
2013-09-24 08:35:00,73.3,70.8,29.96,East,89,1.0,1.0,92,0.04,,,0.26,Wunderground v.1.15,2013-09-24 18:35:00,
2013-09-24 08:45:00,73.8,71.3,29.96,East,88,1.0,1.0,92,0.00,,,0.26,Wunderground v.1.15,2013-09-24 18:45:00,
2013-09-24 08:55:00,74.5,72.0,29.96,East,89,1.0,1.0,92,0.00,,,0.26,Wunderground v.1.15,2013-09-24 18:55:00,
2013-09-24 09:00:00,74.7,72.2,29.96,East,88,1.0,4.0,92,0.00,,,0.27,Wunderground v.1.15,2013-09-24 19:00:00,
2013-09-24 09:05:00,74.5,71.7,29.96,East,88,1.0,4.0,91,0.21,,,0.29,Wunderground v.1.15,2013-09-24 19:05:00,
2013-09-24 09:15:00,74.0,71.2,29.96,East,89,2.0,2.0,91,0.05,,,0.29,Wunderground v.1.15,2013-09-24 19:15:00,
2013-09-24 09:20:00,74.1,71.3,29.96,East,87,2.0,3.0,91,0.04,,,0.30,Wunderground v.1.15,2013-09-24 19:20:00,
2013-09-24 09:30:00,73.6,71.1,29.97,East,92,3.0,3.0,92,0.06,,,0.31,Wunderground v.1.15,2013-09-24 19:30:00,
2013-09-24 09:40:00,73.5,71.0,29.98,East,93,2.0,2.0,92,0.30,,,0.34,Wunderground v.1.15,2013-09-24 19:40:00,
2013-09-24 09:50:00,73.5,71.4,29.97,East,93,1.0,1.0,93,0.11,,,0.37,Wunderground v.1.15,2013-09-24 19:50:00,
2013-09-24 10:00:00,74.4,72.2,29.98,East,95,1.0,4.0,93,0.05,,,0.37,Wunderground v.1.15,2013-09-24 20:00:00,
2013-09-24 10:05:00,74.8,72.6,29.97,East,96,1.0,4.0,93,0.00,,,0.37,Wunderground v.1.15,2013-09-24 20:05:00,
2013-09-24 10:15:00,75.3,73.1,29.97,East,96,0.0,1.0,93,0.00,,,0.37,Wunderground v.1.15,2013-09-24 20:15:00,
2013-09-24 10:25:00,75.9,72.8,29.97,East,96,1.0,3.0,90,0.00,,,0.37,Wunderground v.1.15,2013-09-24 20:25:00,
2013-09-24 10:30:00,76.4,72.6,29.97,East,96,0.0,0.0,88,0.00,,,0.37,Wunderground v.1.15,2013-09-24 20:30:00,
2013-09-24 10:40:00,76.4,71.9,29.97,East,95,1.0,1.0,86,0.00,,,0.37,Wunderground v.1.15,2013-09-24 20:40:00,
2013-09-24 10:50:00,76.9,72.4,29.97,ESE,119,2.0,2.0,86,0.00,,,0.37,Wunderground v.1.15,2013-09-24 20:50:00,
2013-09-24 11:00:00,76.6,72.1,29.96,East,92,3.0,3.0,86,0.00,,,0.37,Wunderground v.1.15,2013-09-24 21:00:00,
2013-09-24 11:05:00,77.3,71.7,29.97,East,101,3.0,11.0,83,0.00,,,0.37,Wunderground v.1.15,2013-09-24 21:05:00,
2013-09-24 11:15:00,78.1,71.4,29.96,ENE,65,6.0,6.0,80,0.00,,,0.37,Wunderground v.1.15,2013-09-24 21:15:00,
2013-09-24 11:25:00,78.3,71.6,29.96,ESE,103,4.0,6.0,80,0.00,,,0.37,Wunderground v.1.15,2013-09-24 21:25:00,
2013-09-24 11:35:00,79.1,72.8,29.96,ESE,106,5.0,5.0,81,0.00,,,0.37,Wunderground v.1.15,2013-09-24 21:35:00,
2013-09-24 11:45:00,79.5,71.7,29.95,ESE,115,5.0,7.0,77,0.00,,,0.37,Wunderground v.1.15,2013-09-24 21:45:00,
2013-09-24 11:50:00,79.9,72.0,29.94,ESE,122,4.0,4.0,77,0.00,,,0.37,Wunderground v.1.15,2013-09-24 21:50:00,
2013-09-24 12:00:00,79.8,70.8,29.94,East,86,5.0,5.0,74,0.00,,,0.37,Wunderground v.1.15,2013-09-24 22:00:00,
2013-09-24 12:05:00,80.1,71.8,29.94,East,94,3.0,5.0,76,0.00,,,0.37,Wunderground v.1.15,2013-09-24 22:05:00,
2013-09-24 12:15:00,80.5,71.0,29.93,East,100,3.0,9.0,73,0.00,,,0.37,Wunderground v.1.15,2013-09-24 22:15:00,
2013-09-24 12:25:00,80.3,71.6,29.93,East,86,5.0,5.0,75,0.00,,,0.37,Wunderground v.1.15,2013-09-24 22:25:00,
2013-09-24 12:30:00,81.0,73.5,29.93,East,99,5.0,7.0,78,0.00,,,0.37,Wunderground v.1.15,2013-09-24 22:30:00,
2013-09-24 12:40:00,81.4,73.1,29.93,NE,56,5.0,5.0,76,0.00,,,0.37,Wunderground v.1.15,2013-09-24 22:40:00,
2013-09-24 12:50:00,80.8,72.9,29.93,East,86,6.0,6.0,77,0.00,,,0.37,Wunderground v.1.15,2013-09-24 22:50:00,
2013-09-24 13:00:00,81.4,73.1,29.93,NE,36,5.0,12.0,76,0.00,,,0.37,Wunderground v.1.15,2013-09-24 23:00:00,
2013-09-24 13:05:00,81.4,73.1,29.93,NE,44,6.0,12.0,76,0.00,,,0.37,Wunderground v.1.15,2013-09-24 23:05:00,
2013-09-24 13:15:00,82.0,72.9,29.93,NE,37,6.0,9.0,74,0.00,,,0.37,Wunderground v.1.15,2013-09-24 23:15:00,
2013-09-24 13:25:00,81.8,72.3,29.92,ESE,108,7.0,7.0,73,0.00,,,0.37,Wunderground v.1.15,2013-09-24 23:25:00,
2013-09-24 13:30:00,81.8,72.3,29.92,East,87,7.0,7.0,73,0.00,,,0.37,Wunderground v.1.15,2013-09-24 23:30:00,
2013-09-24 13:40:00,81.8,70.6,29.92,ESE,105,7.0,11.0,69,0.00,,,0.37,Wunderground v.1.15,2013-09-24 23:40:00,
2013-09-24 13:50:00,80.9,71.0,29.92,NE,37,7.0,11.0,72,0.00,,,0.37,Wunderground v.1.15,2013-09-24 23:50:00,
2013-09-24 14:00:00,80.5,70.6,29.92,East,90,7.0,7.0,72,0.00,,,0.37,Wunderground v.1.15,2013-09-25 00:00:00,
2013-09-24 14:05:00,80.3,70.4,29.91,East,96,7.0,7.0,72,0.00,,,0.37,Wunderground v.1.15,2013-09-25 00:05:00,
2013-09-24 14:15:00,80.0,70.2,29.92,East,80,7.0,9.0,72,0.00,,,0.37,Wunderground v.1.15,2013-09-25 00:15:00,
2013-09-24 14:25:00,80.0,70.2,29.91,East,92,7.0,12.0,72,0.00,,,0.37,Wunderground v.1.15,2013-09-25 00:25:00,
2013-09-24 14:35:00,80.1,70.7,29.91,ESE,118,6.0,9.0,73,0.00,,,0.37,Wunderground v.1.15,2013-09-25 00:35:00,
2013-09-24 14:45:00,80.1,71.1,29.91,ESE,106,5.0,12.0,74,0.00,,,0.37,Wunderground v.1.15,2013-09-25 00:45:00,
2013-09-24 14:55:00,80.3,70.4,29.92,ENE,64,5.0,5.0,72,0.00,,,0.37,Wunderground v.1.15,2013-09-25 00:55:00,
2013-09-24 15:05:00,79.9,70.1,29.91,ENE,67,5.0,10.0,72,0.00,,,0.37,Wunderground v.1.15,2013-09-25 01:05:00,
2013-09-24 15:15:00,79.6,70.6,29.91,ESE,106,6.0,11.0,74,0.00,,,0.37,Wunderground v.1.15,2013-09-25 01:15:00,
2013-09-24 15:25:00,79.6,69.8,29.91,ESE,109,5.0,13.0,72,0.00,,,0.37,Wunderground v.1.15,2013-09-25 01:25:00,
2013-09-24 15:35:00,79.4,70.4,29.91,East,95,5.0,6.0,74,0.00,,,0.37,Wunderground v.1.15,2013-09-25 01:35:00,
2013-09-24 15:40:00,79.3,70.3,29.91,East,79,5.0,5.0,74,0.00,,,0.37,Wunderground v.1.15,2013-09-25 01:40:00,
2013-09-24 15:50:00,79.3,70.3,29.91,ENE,67,5.0,5.0,74,0.00,,,0.37,Wunderground v.1.15,2013-09-25 01:50:00,
2013-09-24 16:00:00,79.2,70.6,29.92,ENE,75,5.0,5.0,75,0.00,,,0.37,Wunderground v.1.15,2013-09-25 02:00:00,
2013-09-24 16:05:00,79.1,70.5,29.92,ENE,74,5.0,10.0,75,0.00,,,0.37,Wunderground v.1.15,2013-09-25 02:05:00,
2013-09-24 16:15:00,79.1,70.9,29.91,NE,55,6.0,6.0,76,0.00,,,0.37,Wunderground v.1.15,2013-09-25 02:15:00,
2013-09-24 16:25:00,78.8,70.6,29.91,ESE,103,5.0,6.0,76,0.00,,,0.37,Wunderground v.1.15,2013-09-25 02:25:00,
2013-09-24 16:35:00,78.3,70.9,29.92,ENE,67,6.0,11.0,78,0.00,,,0.37,Wunderground v.1.15,2013-09-25 02:35:00,
2013-09-24 16:45:00,78.1,70.7,29.92,East,92,6.0,7.0,78,0.00,,,0.37,Wunderground v.1.15,2013-09-25 02:45:00,
2013-09-24 16:55:00,78.0,71.0,29.92,ENE,73,6.0,6.0,79,0.00,,,0.37,Wunderground v.1.15,2013-09-25 02:55:00,
2013-09-24 17:05:00,77.9,70.9,29.92,ESE,107,5.0,6.0,79,0.00,,,0.37,Wunderground v.1.15,2013-09-25 03:05:00,
2013-09-24 17:15:00,77.7,70.3,29.92,East,93,6.0,6.0,78,0.00,,,0.37,Wunderground v.1.15,2013-09-25 03:15:00,
2013-09-24 17:25:00,77.7,70.7,29.93,East,98,4.0,5.0,79,0.00,,,0.37,Wunderground v.1.15,2013-09-25 03:25:00,
2013-09-24 17:35:00,77.7,70.3,29.93,ENE,69,5.0,5.0,78,0.00,,,0.37,Wunderground v.1.15,2013-09-25 03:35:00,
2013-09-24 17:45:00,77.6,70.2,29.94,East,96,3.0,4.0,78,0.00,,,0.37,Wunderground v.1.15,2013-09-25 03:45:00,
2013-09-24 17:50:00,77.5,70.1,29.94,ENE,76,4.0,4.0,78,0.00,,,0.37,Wunderground v.1.15,2013-09-25 03:50:00,
2013-09-24 18:00:00,77.3,70.3,29.94,ESE,103,4.0,4.0,79,0.00,,,0.37,Wunderground v.1.15,2013-09-25 04:00:00,
2013-09-24 18:05:00,77.1,70.1,29.94,NE,48,3.0,5.0,79,0.00,,,0.37,Wunderground v.1.15,2013-09-25 04:05:00,
2013-09-24 18:10:00,76.9,69.5,29.94,East,95,3.0,3.0,78,0.00,,,0.37,Wunderground v.1.15,2013-09-25 04:10:00,
2013-09-24 18:15:00,76.8,69.4,29.94,East,82,3.0,3.0,78,0.00,,,0.37,Wunderground v.1.15,2013-09-25 04:15:00,
2013-09-24 18:20:00,76.6,69.2,29.94,East,82,2.0,2.0,78,0.00,,,0.37,Wunderground v.1.15,2013-09-25 04:20:00,
2013-09-24 18:30:00,76.4,68.7,29.95,ESE,118,2.0,2.0,77,0.00,,,0.37,Wunderground v.1.15,2013-09-25 04:30:00,
2013-09-24 18:40:00,76.2,68.5,29.95,ENE,64,2.0,3.0,77,0.00,,,0.37,Wunderground v.1.15,2013-09-25 04:40:00,
2013-09-24 18:50:00,76.0,68.6,29.96,East,80,2.0,2.0,78,0.00,,,0.37,Wunderground v.1.15,2013-09-25 04:50:00,
2013-09-24 18:55:00,76.0,68.6,29.96,East,80,2.0,2.0,78,0.00,,,0.37,Wunderground v.1.15,2013-09-25 04:55:00,
2013-09-24 19:05:00,75.9,69.3,29.96,East,86,1.0,3.0,80,0.00,,,0.37,Wunderground v.1.15,2013-09-25 05:05:00,
2013-09-24 19:15:00,75.9,69.6,29.97,East,96,2.0,2.0,81,0.00,,,0.37,Wunderground v.1.15,2013-09-25 05:15:00,
2013-09-24 19:25:00,75.8,69.9,29.97,East,95,2.0,4.0,82,0.00,,,0.37,Wunderground v.1.15,2013-09-25 05:25:00,
2013-09-24 19:35:00,75.8,69.6,29.97,ENE,64,3.0,4.0,81,0.00,,,0.37,Wunderground v.1.15,2013-09-25 05:35:00,
2013-09-24 19:45:00,75.8,69.6,29.97,East,101,2.0,4.0,81,0.00,,,0.37,Wunderground v.1.15,2013-09-25 05:45:00,
2013-09-24 19:55:00,75.8,69.6,29.97,East,91,2.0,2.0,81,0.00,,,0.37,Wunderground v.1.15,2013-09-25 05:55:00,
2013-09-24 20:05:00,75.7,69.5,29.98,ESE,105,2.0,2.0,81,0.00,,,0.37,Wunderground v.1.15,2013-09-25 06:05:00,
2013-09-24 20:15:00,75.6,69.4,29.98,ESE,107,1.0,3.0,81,0.00,,,0.37,Wunderground v.1.15,2013-09-25 06:15:00,
2013-09-24 20:20:00,75.5,69.6,29.98,ESE,107,1.0,1.0,82,0.00,,,0.37,Wunderground v.1.15,2013-09-25 06:20:00,
2013-09-24 20:30:00,75.3,69.4,29.98,ESE,107,1.0,2.0,82,0.00,,,0.37,Wunderground v.1.15,2013-09-25 06:30:00,
2013-09-24 20:40:00,75.4,69.5,29.99,East,98,2.0,2.0,82,0.00,,,0.37,Wunderground v.1.15,2013-09-25 06:40:00,
2013-09-24 20:50:00,75.6,69.7,29.98,ESE,102,3.0,3.0,82,0.00,,,0.37,Wunderground v.1.15,2013-09-25 06:50:00,
2013-09-24 20:55:00,75.5,69.3,29.99,ESE,102,2.0,4.0,81,0.00,,,0.37,Wunderground v.1.15,2013-09-25 06:55:00,
2013-09-24 21:05:00,75.4,69.5,29.98,East,98,2.0,4.0,82,0.00,,,0.37,Wunderground v.1.15,2013-09-25 07:05:00,
2013-09-24 21:15:00,75.3,69.4,29.99,East,97,1.0,2.0,82,0.00,,,0.37,Wunderground v.1.15,2013-09-25 07:15:00,
2013-09-24 21:25:00,75.3,69.4,29.99,ESE,102,3.0,3.0,82,0.00,,,0.37,Wunderground v.1.15,2013-09-25 07:25:00,
2013-09-24 21:35:00,75.3,69.4,29.99,ESE,107,1.0,4.0,82,0.00,,,0.37,Wunderground v.1.15,2013-09-25 07:35:00,
2013-09-24 21:40:00,75.4,69.5,29.99,East,98,2.0,3.0,82,0.00,,,0.37,Wunderground v.1.15,2013-09-25 07:40:00,
2013-09-24 21:50:00,75.7,69.5,29.99,East,100,3.0,3.0,81,0.00,,,0.37,Wunderground v.1.15,2013-09-25 07:50:00,
2013-09-24 22:00:00,75.7,69.5,29.99,East,91,2.0,2.0,81,0.00,,,0.37,Wunderground v.1.15,2013-09-25 08:00:00,
2013-09-24 22:05:00,75.6,69.4,29.99,East,92,2.0,2.0,81,0.00,,,0.37,Wunderground v.1.15,2013-09-25 08:05:00,
2013-09-24 22:15:00,75.4,68.8,30.00,East,84,2.0,3.0,80,0.00,,,0.37,Wunderground v.1.15,2013-09-25 08:15:00,
2013-09-24 22:25:00,75.4,68.8,29.99,ESE,107,2.0,4.0,80,0.00,,,0.37,Wunderground v.1.15,2013-09-25 08:25:00,
2013-09-24 22:30:00,75.3,68.7,29.99,East,91,2.0,2.0,80,0.00,,,0.37,Wunderground v.1.15,2013-09-25 08:30:00,
2013-09-24 22:40:00,75.3,68.7,29.99,East,95,2.0,2.0,80,0.00,,,0.37,Wunderground v.1.15,2013-09-25 08:40:00,
2013-09-24 22:50:00,75.2,68.6,29.99,East,95,2.0,4.0,80,0.00,,,0.37,Wunderground v.1.15,2013-09-25 08:50:00,
2013-09-24 23:00:00,75.1,68.5,29.98,East,90,2.0,5.0,80,0.00,,,0.37,Wunderground v.1.15,2013-09-25 09:00:00,
2013-09-24 23:05:00,75.1,68.9,29.98,East,97,3.0,5.0,81,0.00,,,0.37,Wunderground v.1.15,2013-09-25 09:05:00,
2013-09-24 23:15:00,75.2,69.0,29.99,East,97,3.0,3.0,81,0.00,,,0.37,Wunderground v.1.15,2013-09-25 09:15:00,
2013-09-24 23:20:00,75.1,68.9,29.99,East,101,2.0,3.0,81,0.00,,,0.37,Wunderground v.1.15,2013-09-25 09:20:00,
2013-09-24 23:30:00,75.1,68.9,29.98,East,101,1.0,2.0,81,0.00,,,0.37,Wunderground v.1.15,2013-09-25 09:30:00,
2013-09-24 23:35:00,75.0,69.1,29.98,East,101,1.0,4.0,82,0.00,,,0.37,Wunderground v.1.15,2013-09-25 09:35:00,
2013-09-24 23:45:00,75.0,69.1,29.98,East,101,2.0,3.0,82,0.00,,,0.37,Wunderground v.1.15,2013-09-25 09:45:00,
2013-09-24 23:55:00,74.9,69.4,29.98,East,101,1.0,2.0,83,0.00,,,0.37,Wunderground v.1.15,2013-09-25 09:55:00,